Temperature
14 14 13 13 13 13 13 13 12 12 12 12 12 12 12 12 12 11 11 11 11 11 11 11 11 11 11 11 11 11 10 10 11 10 10 10 10 11 11 11 11 11 11
14 14 13 13 13 13 13 12 12 12 12 12 12 12 12 12 11 11 11 11 11 11 11 11 10 10 10 10 10 10 10 10 10 10 10 10 10 10 10 11 10 11 11
13 13 13 13 13 13 13 12 12 12 12 12 12 12 11 11 11 11 11 11 11 10 10 10 10 10 10 10 10 10 10 10 10 10 10 10 10 10 10 10 10 10 10
13 13 13 13 13 13 12 12 12 12 12 12 11 11 11 11 11 11 11 11 11 10 10 10 10 10 10 10 10 10 10 10 9 9 10 10 10 10 10 10 10 10 10
13 13 12 12 12 12 12 12 12 12 11 11 11 11 11 11 11 11 10 10 10 10 10 10 10 10 10 10 10 9 9 9 9 9 9 9 9 9 9 9 9 9 9
12 12 12 12 12 12 12 12 11 11 11 11 11 11 11 11 11 10 10 10 10 10 10 10 10 10 10 10 9 9 9 9 9 9 9 9 9 9 9 9 9 9 8
12 12 12 12 12 11 11 11 11 11 11 10 10 10 10 10 10 10 10 10 9 9 9 9 9 9 9 9 9 9 9 9 9 9 9 9 9 9 8 8 8 8 8
12 12 12 11 11 11 11 11 11 10 10 10 10 10 10 10 10 10 10 9 9 9 9 9 9 9 9 9 8 8 8 8 9 8 8 8 8 8 8 8 8 8 7
11 11 11 11 11 11 11 10 10 10 10 10 10 10 10 10 10 9 9 9 9 8 9 9 8 8 9 9 8 8 8 8 8 8 8 8 8 8 8 7 7 7 7
11 11 11 10 10 10 10 10 10 10 10 10 10 9 9 9 9 9 9 9 8 8 8 8 8 8 8 8 8 8 7 7 8 8 8 7 7 7 7 7 7 7 7
10 10 10 10 10 10 10 10 10 10 9 9 9 9 9 9 9 9 9 8 8 8 8 8 8 8 8 8 8 7 7 7 7 7 7 7 7 7 7 7 7 6 6
10 10 9 9 9 9 9 9 9 9 9 9 8 8 9 9 9 8 8 8 8 7 7 7 7 8 7 7 7 7 7 7 6 6 6 6 6 6 6 6 6 6 6
9 9 9 9 9 9 9 9 9 9 8 8 8 8 8 8 8 8 8 8 7 7 7 7 7 7 7 7 7 7 7 6 6 6 6 6 6 6 6 6 6 6 6
9 9 9 9 9 8 8 8 8 8 8 8 8 7 7 7 7 7 7 7 7 7 6 6 6 6 6 6 6 6 6 6 6 5 5 6 6 6 5 5 5 5 5
9 9 8 8 8 8 8 8 8 8 8 7 7 7 7 7 7 7 6 6 6 6 6 6 6 5 5 5 5 5 5 5 5 5 5 5 5 5 5 5 5 5 5
8 8 8 8 8 7 7 7 7 7 7 7 7 7 6 6 6 6 6 6 6 6 5 5 5 5 5 5 4 5 5 5 5 5 5 5 5 5 4 5 4 4 4
8 8 7 7 7 7 7 7 7 7 7 7 7 6 6 6 6 6 5 5 5 5 5 5 4 4 4 4 4 4 4 4 4 4 4 4 4 4 4 4 4 4 4
7 7 7 7 7 7 6 6 6 6 6 6 6 6 6 6 5 5 5 5 4 4 4 4 4 4 4 4 4 4 4 4 4 4 4 4 4 4 4 4 4 4 4
7 7 7 6 6 6 6 6 6 6 5 5 5 5 5 5 5 4 4 4 4 4 4 4 3 3 3 3 3 3 3 3 3 3 3 3 3 3 3 3 3 3 3
7 6 6 6 6 6 5 5 5 5 5 5 5 4 4 4 4 4 4 4 4 3 3 3 3 3 3 3 3 3 3 3 3 3 3 3 3 3 3 3 3 3 3
6 6 6 6 5 5 5 5 5 5 4 4 4 4 4 4 4 3 3 3 3 3 3 3 3 3 3 3 3 3 3 3 3 3 3 3 2 2 2 2 2 2 2
6 6 5 5 5 5 5 4 4 4 4 4 4 3 3 3 3 3 3 3 3 3 3 3 3 3 3 3 2 2 2 2 2 2 2 2 2 2 2 2 2 2 2
5 5 5 5 5 4 4 4 4 4 4 3 3 3 3 3 3 3 3 2 2 2 2 2 2 2 2 2 2 2 2 2 2 2 2 2 2 2 2 2 2 1 1
5 5 5 4 4 4 4 4 4 4 3 3 3 3 3 2 2 2 2 2 2 2 2 2 2 2 2 2 2 2 2 2 2 2 2 2 2 1 1 1 1 1 1
4 4 4 4 4 4 3 3 3 3 3 3 3 2 2 2 2 2 2 2 2 2 2 2 2 2 2 1 2 2 2 2 2 2 2 1 1 1 1 1 1 0 0
4 4 4 3 3 3 3 3 3 3 3 2 2 2 2 2 2 2 1 1 1 1 1 1 1 1 1 1 1 1 2 1 1 1 1 1 1 1 1 0 0 0 0
Wind_Speed
7 7 7 7 6 6 6 6 6 6 6 6 6 6 6 6 6 5 5 5 5 5 5 5 5 4 4 4 4 4 4 4 4 4 3 3 4 3 3 3 3 3 1
7 7 7 7 7 7 7 7 7 7 7 7 6 6 6 6 6 6 6 6 6 6 5 5 5 4 5 4 4 4 4 4 5 5 4 4 4 4 3 3 3 3 3
6 6 6 7 7 7 7 7 7 7 7 7 7 7 7 7 7 7 7 7 7 6 6 6 6 6 6 5 5 5 4 4 5 5 5 4 4 3 3 3 3 3 3
5 6 6 6 6 6 6 6 7 7 8 8 8 7 7 7 7 7 7 7 7 7 6 6 7 7 7 6 6 6 5 5 5 5 5 4 4 4 4 3 3 3 3
5 5 6 6 6 6 6 6 7 7 7 7 7 7 7 7 6 7 7 7 7 7 7 7 7 6 5 6 5 5 5 5 5 5 5 5 4 3 4 4 4 4 3
4 5 5 5 5 6 6 6 6 6 7 7 7 7 7 6 4 5 7 7 7 8 7 7 7 6 6 7 7 7 7 7 6 6 5 6 6 5 4 4 4 4 4
4 4 4 5 5 5 5 6 6 6 6 7 7 7 7 6 5 7 8 8 8 8 7 7 6 5 6 7 7 8 8 8 8 8 7 7 6 5 5 5 5 5 5
3 4 4 4 5 5 5 5 6 6 6 6 7 7 7 5 5 6 8 9 8 8 8 8 8 7 6 7 7 7 7 7 7 7 7 6 6 5 5 6 6 5 5
3 3 3 4 4 4 5 5 5 5 6 6 6 7 7 6 5 6 7 7 8 8 8 8 8 8 4 5 7 7 7 6 5 6 5 5 4 5 6 5 5 4 5
3 3 3 3 4 4 5 5 4 5 5 5 6 6 6 6 4 5 7 5 7 7 6 6 6 6 5 6 7 7 7 6 6 5 6 7 7 6 7 7 6 5 5
3 3 3 3 4 4 4 4 4 4 5 5 6 6 6 6 5 5 6 5 5 6 5 5 4 4 5 6 7 7 6 6 6 6 5 5 5 5 5 6 6 6 6
2 2 3 3 3 3 3 3 4 4 4 5 5 5 4 4 3 4 6 6 5 5 5 4 3 3 4 5 5 4 4 5 5 5 5 5 5 5 4 5 6 6 6
3 3 3 3 3 3 3 3 3 3 4 4 4 4 4 3 2 3 5 6 5 4 4 2 2 3 4 4 4 4 5 5 5 5 5 5 5 5 4 4 5 4 4
3 3 3 3 3 3 3 3 3 3 3 3 3 4 3 2 2 2 3 3 4 4 3 3 4 4 4 3 3 4 4 4 4 5 5 4 4 4 4 4 4 3 4
3 3 3 3 3 3 3 2 3 3 3 3 3 3 3 3 1 1 2 2 3 2 2 2 3 3 3 3 3 3 3 4 4 4 4 4 4 4 4 4 4 4 5
3 3 3 3 3 3 3 2 1 2 1 2 2 3 2 2 1 2 2 1 1 2 3 3 3 3 4 4 4 3 3 3 3 3 4 4 4 4 4 4 4 5 5
4 4 3 3 3 3 4 4 3 2 2 3 3 3 3 2 2 3 3 3 4 4 3 3 3 4 4 4 4 4 4 4 3 3 4 4 4 4 4 4 4 4 5
4 3 3 3 3 4 4 4 4 4 3 2 2 3 3 3 3 3 4 4 3 4 3 3 3 3 3 3 3 3 3 3 3 3 3 3 4 4 4 4 4 5 5
4 3 3 3 3 4 4 4 4 4 4 3 2 2 3 3 4 4 4 3 3 3 3 3 3 3 3 3 3 3 3 3 3 3 3 4 4 4 4 5 4 5 5
4 3 4 4 4 4 4 4 4 4 3 3 3 2 2 2 2 3 3 3 3 4 4 4 3 3 3 3 3 3 3 3 3 3 3 3 3 4 4 4 4 4 4
3 3 4 4 4 4 3 4 4 4 4 3 3 2 3 4 4 4 4 4 4 4 4 4 4 4 4 3 3 4 4 3 3 3 3 3 3 3 3 4 4 4 4
3 3 3 4 3 3 3 4 4 4 4 4 3 3 4 4 4 4 3 3 3 3 3 3 3 3 4 4 4 4 4 4 4 4 4 3 3 4 4 4 4 3 3
4 4 4 4 3 3 4 4 4 4 4 4 4 3 3 4 4 4 4 3 3 3 3 3 3 3 3 3 4 4 4 4 4 4 4 4 4 4 4 4 4 4 4
4 4 4 4 4 4 4 4 4 4 4 4 4 4 4 4 4 4 4 3 3 3 3 3 3 3 4 3 3 3 4 4 4 4 5 4 4 4 4 4 4 5 4
4 4 4 4 4 4 4 4 4 4 4 4 3 3 3 3 4 4 4 3 3 3 3 3 3 3 4 4 3 3 2 3 4 4 4 4 4 4 4 4 4 4 4
4 4 4 4 4 4 4 4 4 4 4 4 3 3 3 3 3 4 3 3 3 3 3 3 3 4 4 4 4 3 2 3 3 4 4 3 3 3 3 3 4 3 3
Wind_Direction
201 203 208 210 212 215 220 224 229 232 228 227 225 223 222 218 218 219 227 227 236 238 232 236 241 248 245 243 245 248 251 254 258 268 277 283 285 297 307 304 306 298 282
207 206 211 213 213 219 224 228 231 232 231 231 228 226 223 223 224 224 225 227 233 239 241 240 244 238 244 251 248 247 247 251 255 265 271 279 282 291 299 300 298 297 291
209 211 213 215 217 222 228 232 234 233 233 231 230 230 227 226 228 229 227 230 235 239 243 243 245 241 239 239 243 249 249 248 251 256 264 273 277 283 290 292 290 292 290
208 213 220 222 223 228 232 236 237 236 233 233 233 233 232 230 231 232 232 236 240 240 244 248 249 247 244 243 243 245 248 247 248 251 260 262 265 275 277 281 286 286 285
211 216 224 228 227 230 231 233 237 240 240 237 236 235 233 233 233 232 233 237 242 244 244 245 248 256 272 261 256 250 246 247 251 253 259 261 260 261 268 270 276 283 284
214 221 225 230 230 232 235 235 238 242 242 241 239 235 234 235 218 228 242 238 242 245 247 248 245 238 238 239 249 255 258 254 254 255 259 260 262 266 272 265 269 275 282
222 224 221 224 230 235 238 239 239 241 241 240 238 237 240 237 211 216 227 238 245 247 245 245 244 241 236 238 227 225 239 249 255 256 261 264 265 267 270 265 264 271 279
231 231 229 227 229 233 237 241 243 242 239 240 241 239 242 241 216 221 222 232 241 245 246 245 244 242 240 243 242 238 240 239 239 243 254 264 270 274 268 268 268 265 266
242 244 240 236 236 235 236 241 243 242 241 240 241 241 241 235 211 218 226 239 239 242 242 244 247 248 236 236 241 243 245 245 230 234 259 270 288 279 273 261 255 253 262
248 253 249 244 237 239 243 245 244 241 243 244 244 243 242 244 216 218 229 238 241 242 242 240 237 245 234 236 239 242 243 246 246 238 234 234 243 234 236 246 249 249 258
260 260 258 256 250 246 247 248 245 244 246 246 246 244 241 243 215 207 222 238 243 245 244 245 240 216 224 235 246 247 249 255 252 252 250 246 245 244 240 244 247 245 249
259 258 260 262 260 253 245 247 244 241 243 245 250 251 253 246 242 212 212 232 257 243 245 248 244 218 227 235 240 240 247 254 249 247 246 246 245 246 248 249 245 246 250
257 260 266 268 266 256 241 236 237 238 240 243 247 254 256 260 246 226 219 220 234 245 249 266 257 234 235 233 220 217 223 236 240 241 244 247 251 256 254 251 251 251 256
257 265 264 268 271 265 250 236 233 232 235 239 244 252 255 249 260 255 241 221 214 228 238 208 210 222 235 248 236 230 236 237 238 242 246 247 248 248 245 243 243 241 249
261 264 265 263 263 262 255 254 245 238 246 249 246 247 249 246 256 317 270 244 243 232 221 227 230 225 228 236 247 250 243 238 242 248 248 249 248 244 245 241 243 243 246
262 265 268 267 262 255 251 242 239 260 241 252 287 277 257 269 188 191 215 187 172 189 207 223 229 230 233 237 239 245 249 249 249 246 249 249 250 252 252 248 240 240 243
257 264 268 266 260 254 249 242 240 223 195 203 217 236 252 222 191 193 195 193 182 186 216 237 241 240 240 240 243 248 251 248 246 246 251 253 252 253 254 251 244 242 244
256 259 258 259 261 257 253 250 245 244 243 239 206 196 208 207 198 191 192 191 202 204 224 234 241 248 249 248 248 250 254 254 249 251 251 254 257 253 250 251 246 244 245
252 256 258 260 258 255 253 248 242 241 242 244 241 193 180 190 193 193 197 216 223 225 229 235 243 249 250 253 253 254 251 251 251 249 252 252 253 254 254 253 252 249 249
253 254 257 254 251 250 248 246 240 240 240 237 235 229 198 203 219 215 223 239 238 234 234 233 236 242 245 246 248 251 252 249 248 251 256 257 257 253 254 258 253 249 247
249 243 240 248 247 246 247 246 244 241 239 240 238 221 212 220 227 230 231 237 241 239 237 237 236 235 238 239 242 244 249 248 247 248 250 253 255 256 256 255 255 255 251
246 248 244 245 244 243 245 245 245 243 241 241 241 212 202 228 231 229 232 240 248 248 241 236 237 238 238 240 241 241 243 246 247 248 249 252 255 257 259 258 257 258 256
245 244 242 241 236 231 234 240 241 243 242 239 236 228 217 229 234 232 232 233 233 237 237 235 237 241 245 249 249 247 248 249 251 253 251 250 250 252 251 250 252 256 252
247 244 240 239 236 233 231 236 238 239 242 241 237 234 231 229 231 230 230 228 226 228 232 234 237 242 250 257 251 248 252 261 263 256 254 252 250 251 250 251 251 253 255
245 244 243 239 237 234 233 234 235 233 233 236 239 240 240 237 234 229 224 221 222 225 231 235 242 244 246 250 256 256 264 270 269 269 254 250 247 250 252 254 255 256 250
245 243 243 241 241 240 238 237 238 237 237 237 239 240 241 241 238 226 220 220 220 223 229 234 242 244 247 250 259 268 256 257 262 265 255 249 245 249 252 255 258 255 251
Height
1520 1521 1522 1524 1524 1526 1526 1527 1528 1528 1529 1529 1529 1529 1530 1530 1530 1530 1530 1529 1530 1530 1530 1529 1529 1529 1529 1529 1529 1528 1528 1528 1527 1527 1526 1525 1524 1523 1522 1521 1521 1520 1519
1517 1518 1519 1521 1521 1522 1523 1524 1525 1525 1526 1526 1526 1526 1527 1527 1527 1527 1526 1527 1527 1527 1527 1527 1527 1526 1526 1526 1526 1526 1526 1525 1525 1524 1523 1522 1522 1521 1520 1519 1518 1518 1517
1514 1515 1516 1517 1518 1519 1520 1520 1521 1522 1522 1523 1523 1523 1523 1523 1523 1523 1523 1523 1524 1524 1524 1524 1524 1524 1523 1523 1523 1523 1523 1522 1522 1521 1520 1520 1519 1518 1517 1516 1516 1515 1514
1511 1512 1513 1514 1514 1515 1516 1517 1517 1518 1518 1519 1519 1519 1519 1519 1519 1520 1520 1520 1520 1520 1520 1520 1520 1520 1520 1520 1520 1520 1520 1519 1519 1519 1518 1517 1516 1516 1515 1514 1513 1513 1512
1508 1508 1509 1510 1511 1511 1512 1513 1513 1514 1514 1515 1515 1515 1515 1515 1515 1515 1516 1516 1516 1516 1516 1516 1516 1516 1516 1516 1516 1516 1516 1516 1516 1515 1515 1514 1514 1513 1512 1512 1511 1510 1509
1505 1505 1506 1507 1507 1508 1508 1509 1510 1510 1510 1510 1511 1511 1511 1511 1511 1511 1512 1512 1512 1512 1512 1512 1511 1511 1511 1511 1511 1512 1512 1512 1512 1512 1511 1511 1511 1510 1509 1509 1508 1507 1507
1502 1503 1503 1503 1504 1504 1505 1505 1505 1506 1506 1506 1506 1506 1506 1506 1506 1507 1507 1507 1507 1508 1508 1508 1507 1507 1507 1507 1507 1507 1507 1507 1508 1508 1508 1507 1507 1506 1506 1505 1505 1504 1503
1499 1500 1500 1500 1500 1501 1501 1501 1502 1502 1502 1502 1502 1502 1502 1502 1502 1502 1502 1503 1503 1503 1503 1503 1503 1503 1503 1504 1504 1504 1503 1503 1503 1503 1503 1503 1503 1503 1502 1502 1501 1501 1500
1496 1496 1496 1497 1497 1497 1497 1497 1497 1498 1498 1498 1498 1498 1498 1498 1497 1498 1498 1498 1498 1498 1498 1499 1499 1499 1499 1499 1500 1499 1499 1499 1499 1499 1499 1498 1498 1498 1498 1498 1498 1497 1497
1493 1493 1493 1494 1494 1493 1494 1494 1494 1494 1494 1494 1494 1494 1494 1494 1493 1493 1493 1494 1494 1494 1494 1494 1494 1494 1494 1494 1495 1495 1495 1495 1495 1495 1494 1494 1494 1494 1494 1494 1494 1493 1493
1490 1490 1490 1490 1490 1490 1490 1490 1490 1490 1490 1490 1490 1489 1489 1489 1489 1489 1489 1489 1489 1490 1490 1489 1489 1489 1489 1489 1490 1490 1490 1490 1490 1490 1490 1490 1490 1490 1490 1489 1489 1489 1489
1487 1487 1487 1487 1487 1486 1486 1486 1486 1486 1486 1486 1486 1485 1485 1484 1484 1484 1484 1485 1485 1485 1485 1485 1485 1485 1484 1484 1484 1484 1485 1485 1486 1486 1486 1486 1486 1485 1485 1485 1485 1484 1484
1484 1484 1483 1483 1483 1483 1483 1482 1482 1482 1482 1482 1482 1481 1481 1480 1480 1480 1480 1480 1480 1481 1481 1480 1481 1480 1480 1480 1479 1480 1480 1480 1481 1481 1481 1481 1481 1481 1480 1480 1480 1480 1479
1481 1481 1480 1480 1480 1480 1479 1479 1478 1478 1478 1477 1477 1477 1477 1476 1476 1476 1476 1476 1476 1476 1476 1476 1476 1476 1476 1475 1475 1475 1475 1475 1475 1476 1476 1476 1476 1476 1475 1475 1475 1475 1475
1478 1477 1477 1477 1476 1476 1476 1475 1475 1474 1474 1474 1474 1473 1473 1472 1472 1472 1472 1472 1472 1472 1472 1472 1472 1471 1471 1471 1471 1471 1471 1471 1471 1471 1471 1471 1471 1471 1470 1470 1470 1470 1470
1474 1474 1474 1473 1473 1472 1472 1471 1470 1470 1470 1470 1470 1470 1469 1469 1468 1468 1468 1468 1468 1468 1468 1468 1468 1467 1467 1467 1467 1467 1467 1466 1466 1466 1466 1467 1467 1466 1466 1465 1466 1466 1465
1471 1470 1470 1469 1469 1468 1468 1467 1467 1466 1466 1466 1466 1466 1465 1465 1465 1465 1465 1464 1464 1465 1465 1465 1464 1464 1464 1464 1464 1463 1463 1462 1462 1462 1462 1462 1462 1462 1461 1461 1461 1461 1461
1467 1467 1466 1466 1465 1464 1464 1463 1463 1462 1462 1461 1462 1462 1461 1461 1461 1461 1461 1461 1461 1461 1461 1461 1461 1461 1461 1461 1460 1460 1459 1459 1458 1458 1458 1458 1458 1457 1457 1456 1456 1456 1456
1464 1463 1462 1462 1461 1461 1460 1460 1459 1458 1458 1458 1457 1457 1457 1457 1457 1457 1457 1457 1457 1457 1458 1458 1458 1458 1457 1457 1457 1456 1456 1455 1455 1455 1454 1454 1454 1453 1452 1452 1452 1452 1452
1459 1459 1458 1458 1457 1456 1456 1455 1455 1454 1454 1454 1453 1453 1453 1453 1453 1453 1453 1454 1454 1454 1454 1454 1454 1454 1454 1453 1453 1452 1452 1451 1451 1451 1450 1450 1450 1449 1449 1448 1448 1448 1447
1455 1454 1454 1454 1453 1453 1452 1451 1451 1450 1450 1450 1449 1449 1449 1449 1449 1449 1449 1450 1450 1450 1450 1450 1450 1450 1450 1449 1449 1448 1448 1447 1447 1447 1446 1446 1446 1445 1444 1444 1444 1443 1443
1451 1451 1450 1450 1449 1449 1448 1448 1447 1446 1446 1445 1445 1445 1445 1445 1445 1445 1445 1445 1446 1446 1446 1446 1446 1446 1446 1445 1445 1444 1444 1443 1443 1443 1442 1442 1442 1441 1441 1440 1440 1439 1439
1447 1446 1446 1446 1445 1445 1444 1444 1443 1443 1442 1442 1441 1441 1441 1441 1441 1441 1441 1441 1442 1442 1442 1442 1442 1442 1442 1441 1441 1440 1440 1440 1439 1439 1438 1438 1438 1437 1437 1436 1436 1435 1435
1443 1442 1442 1441 1441 1440 1440 1439 1439 1439 1438 1438 1437 1437 1437 1436 1437 1437 1437 1437 1437 1438 1438 1438 1438 1438 1437 1437 1437 1436 1436 1436 1435 1435 1434 1434 1434 1433 1433 1432 1432 1432 1432
1438 1438 1437 1437 1436 1436 1435 1435 1435 1434 1434 1434 1433 1433 1432 1432 1432 1432 1433 1433 1433 1434 1434 1434 1434 1434 1434 1434 1433 1433 1432 1432 1432 1432 1431 1431 1430 1430 1429 1429 1429 1428 1428
1434 1433 1433 1432 1432 1432 1431 1431 1430 1430 1430 1430 1429 1429 1429 1428 1428 1428 1428 1429 1429 1430 1430 1430 1430 1430 1430 1430 1430 1430 1429 1429 1429 1429 1428 1428 1427 1427 1426 1426 1426 1425 1425